Regional Weather Roundup
Issued by NWS

Home | Current Version | Previous Version | Graphics & Text | Print | Product List | Glossary On
Versions: 1 2 3 4 5 6 7 8 9 10 11 12 13 14 15 16 17 18 19 20 21 22 23 24 25 26 27 28 29 30 31 32 33 34 35 36 37 38 39 40 41 42 43 44 45 46 47 48 49 50
000
ASUS43 KDMX 222301
RWRIA

WEATHER ROUNDUP FOR IOWA
NATIONAL WEATHER SERVICE DES MOINES IA
600 PM CDT SAT JUL 22 2017

NOTE: "FAIR" INDICATES FEW OR NO CLOUDS BELOW 12,000 FEET WITH NO
SIGNIFICANT WEATHER AND/OR OBSTRUCTIONS TO VISIBILITY.

* - THESE STATIONS ARE NOT NWS STATIONS...THUS NOT UNDER NWS
QUALITY CONTROL.  THEY ALSO DO NOT REPORT WEATHER SUCH
AS PRECIPITATION OR FOG.

IAZ001>003-012>014-020>022-031>034-043>046-230000-
   NORTHWEST IOWA

CITY           SKY/WX    TMP DP  RH WIND       PRES   REMARKS
CARROLL *      CLOUDY    81  79  94 CALM      29.88F HX  89
CHEROKEE *     PTSUNNY   83  72  68 N10       29.89S HX  88
DENISON *      CLOUDY    79  75  89 NW6       29.91F HX  82
ORANGE CITY *  MOSUNNY   82  77  83 NW9       29.92S HX  91
SHELDON *      CLOUDY    84  70  61 NW7       29.90S HX  88
SIOUX CITY     CLOUDY    80  76  87 CALM      29.91S HX  86
SPENCER        SUNNY     86  71  60 NW10      29.90S HX  91
STORM LAKE *   CLOUDY    82  72  69 NW7G14    29.90S HX  87
$$

IAZ055>058-069>071-079>083-090>094-230000-
   SOUTHWEST IOWA

CITY           SKY/WX    TMP DP  RH WIND       PRES   REMARKS
ATLANTIC *     CLOUDY    86  77  74 N8G15     29.88R HX  97
AUDUBON *      PTSUNNY   84  77  79 NW6       29.90S HX  94
CLARINDA *     CLOUDY    88  77  70 N10G16    29.86F HX 100
COUNCIL BLFS * CLOUDY    86  79  79 N14       29.89F HX  99
CRESTON *      PTSUNNY   86  73  66 N9G15     29.88S HX  93
HARLAN  *      CLOUDY    84  77  79 N10G18    29.93R HX  94
LAMONI         MOSUNNY   94  77  57 N10       29.82F HX 108
RED OAK *      CLOUDY    86  77  74 N7        29.87S HX  97
SHENANDOAH *   CLOUDY    88  79  74 N9        29.85F HX 102
$$

IAZ047>049-059>061-072>074-084-230000-
   CENTRAL IOWA

CITY           SKY/WX    TMP DP  RH WIND       PRES   REMARKS
AMES           PTSUNNY   83  76  79 NW6       29.86S HX  91
ANKENY *       SUNNY     86  73  66 N10       29.85F HX  93
BOONE *        CLOUDY    82  73  74 NW6       29.87S HX  88
CHARITON *     SUNNY     88  73  62 N9G16     29.84S HX  96
DES MOINES     PTSUNNY   87  71  58 N10       29.83F HX  93
GRINNELL*      MOSUNNY   82  73  76 N8        29.86F HX  87
KNOXVILLE *    MOSUNNY   86  72  62 N12       29.82F HX  92
MARSHALLTOWN   PTSUNNY   83  74  74 NW8       29.85S HX  89
NEWTON *       MOSUNNY   82  73  74 N9        29.85S HX  88
PELLA *        SUNNY     87  73  61 N8        29.85S HX  94
$$

IAZ004>006-015-016-023>025-035-036-230000-
   NORTH CENTRAL IOWA

CITY           SKY/WX    TMP DP  RH WIND       PRES   REMARKS
ALGONA *       MOSUNNY   86  75  70 NW9       29.87S HX  95
ESTHERVILLE    SUNNY     83  71  67 NW13      29.88R HX  87
FORT DODGE *   CLOUDY    84  73  70 CALM      29.88R HX  91
MASON CITY     MOSUNNY   85  72  65 N8        29.87F HX  91
FOREST CITY *    N/A     84  73  70 W7        29.86F HX  91
WEBSTER CITY * CLOUDY    82  73  74 N3        29.85S HX  88
IOWA FALLS *   CLOUDY    83  74  75 NW6       29.88F HX  89
$$

IAZ007>011-017>019-026>030-037>042-050>054-066-230000-
   NORTHEAST IOWA

CITY           SKY/WX    TMP DP  RH WIND       PRES   REMARKS
CEDAR RAPIDS   CLOUDY    81  76  84 W8        29.82S HX  87
CHARLES CITY * MOSUNNY   82  75  78 CALM      29.86F HX  89
DECORAH *      MOSUNNY   81  73  78 CALM      29.83S HX  85
DUBUQUE        PTSUNNY   84  72  67 CALM      29.83R HX  89
MONTICELLO *   CLOUDY    82  75  78 CALM      29.82S HX  89
OELWEIN *        N/A    N/A N/A N/A MISG        N/A
WATERLOO       CLOUDY    81  72  74 NW8       29.84R HX  85
$$

IAZ064-065-067-068-078-230000-
   EAST CENTRAL IOWA

CITY           SKY/WX    TMP DP  RH WIND       PRES   REMARKS
DAVENPORT      CLOUDY    82  73  74 NE5       29.83S HX  87
IOWA CITY      PTSUNNY   85  75  72 N8        29.82R HX  93
MUSCATINE *    PTSUNNY   84  75  74 N8        29.80R HX  92
QUAD CITIES    CLOUDY    85  73  67 N5        29.79F HX  91
$$

IAZ062-063-075>077-085>089-095>099-230000-
   SOUTHEAST IOWA

CITY           SKY/WX    TMP DP  RH WIND       PRES   REMARKS
BURLINGTON     PTSUNNY   87  79  76 NE6       29.79R HX 101
FAIRFIELD *    MOSUNNY   88  77  70 N10       29.80R HX 100
FORT MADISON * MOSUNNY   88  81  79 NE7       29.80R HX 105
KEOKUK *       CLOUDY    93  77  59 NW6G13    29.77S HX 107
OSKALOOSA *      N/A     87  74  65 N9G16     29.83R HX  95
OTTUMWA        SUNNY     90  74  59 N13       29.81R HX  99
WASHINGTON *   PTSUNNY   84  79  84 N8        29.82R HX  96
$$

ABBREVIATIONS USED IN REMARKS
   TC - TEMPERATURES IN CELSIUS
  WCI - WIND CHILL INDEX
   HX - HEAT INDEX
  VSB - VISIBILITY
$$





USA.gov is the U.S. government's official web portal to all federal, state and local government web resources and services.